Brownsville, TX

11:17 PM CST on February 20, 2018 (GMT -0600)
West Brownsville | | Change Station

Elev 35 ft 25.92 °N, 97.52 °W | Updated 12 seconds ago

Overcast
Overcast
73.6 °F
Feels Like 72 °F
N
6.0
Wind Variable Wind from SSE
Gusts 8.0 mph

Today
High -- | Low -- °F
--% Chance of Precip.
Yesterday
High -- | Low -- °F
Precip. -- in
Pressure 29.99 in
Visibility 10.0 miles
Clouds Few 1300 ft
Mostly Cloudy 2800 ft
Overcast 4500 ft
Heat Index 72 °F
Dew Point 70 °F
Humidity 90%
Rainfall 0.00 in
Snow Depth Not available.
7:01 AM 6:26 PM
Waxing Crescent, 27% visible
SPECI KBRO 210512Z 14009KT 10SM FEW013 BKN028 OVC045 24/22 A2999 RMK AO2 LTG DSNT NE RAB0457E08 P0000 T02390222
Pressure 29.99 in
Visibility 10.0 miles
Clouds Few 1300 ft
Mostly Cloudy 2800 ft
Overcast 4500 ft
Heat Index 72 °F
Dew Point 70 °F
Humidity 90%
Rainfall 0.00 in
Snow Depth Not available.
7:01 AM 6:26 PM
Waxing Crescent, 27% visible
SPECI KBRO 210512Z 14009KT 10SM FEW013 BKN028 OVC045 24/22 A2999 RMK AO2 LTG DSNT NE RAB0457E08 P0000 T02390222

Get Severe Weather Alerts

Thanks for signing up!

Be on the lookout for a verification email in your inbox.

You'll start receiving the daily forecast at 6 AM.

×

10-Day Weather Forecast

Almanac

Astronomy

Feb. 20, 2018 Rise Set
Actual Time
Civil Twilight
Nautical Twilight
Astronomical Twilight
Moon
Length of Visible Light
Length of Day
Tomorrow will be .
, % of the Moon is Illuminated

Today's Extremes

State Highs State Lows

Community

WunderPhotos

Category 6

Welcome to Category 6. This is the collective home for Weather Underground's featured writeups by Dr. Jeff Masters (right), Bob Henson (left), Chris Burt, and other regular contributors.

Nearby

Air Quality

  Air Quality AQ Index Pollutant
Not available.

Snow Depth

Station Depth Elevation

Earthquake Activity

City Distance Mag. Time & Date
Minimum magnitude displayed is 2.5.

Coastal Water Temperatures

Place Temperature

Stations

Nearby Weather Stations

Station Location Temp. Windchill Dew Point Humidity Wind Precip. Elev Updated Type
                   

Watches & Warnings

There are currently no watches in effect.